Time,TemperatureF,DewpointF,PressureIn,WindDirection,WindDirectionDegrees,WindSpeedMPH,WindSpeedGustMPH,Humidity,HourlyPrecipIn,Conditions,Clouds,dailyrainin,SoftwareType,DateUTC
2013-04-03 00:00:00,50.6,48.0,29.75,ENE,68,5.1,5.1,91,0.21,,,0.21,WUHU216HW,2013-04-03 06:00:00,
2013-04-03 00:05:00,50.4,48.1,29.75,NE,45,0.9,5.1,92,0.17,,,0.23,WUHU216HW,2013-04-03 06:05:00,
2013-04-03 00:10:00,50.2,47.9,29.73,ESE,113,2.5,7.6,92,0.18,,,0.24,WUHU216HW,2013-04-03 06:10:00,
2013-04-03 00:15:00,50.0,47.7,29.73,East,90,4.3,7.6,92,0.17,,,0.25,WUHU216HW,2013-04-03 06:15:00,
2013-04-03 00:20:00,50.2,47.9,29.74,WNW,293,1.6,7.6,92,0.16,,,0.26,WUHU216HW,2013-04-03 06:20:00,
2013-04-03 00:25:00,50.2,47.9,29.76,WSW,248,2.7,7.6,92,0.16,,,0.26,WUHU216HW,2013-04-03 06:25:00,
2013-04-03 00:30:00,50.4,48.1,29.76,ENE,68,2.0,3.4,92,0.15,,,0.26,WUHU216HW,2013-04-03 06:30:00,
2013-04-03 00:35:00,50.4,48.1,29.76,East,90,5.8,5.8,92,0.15,,,0.27,WUHU216HW,2013-04-03 06:35:00,
2013-04-03 00:40:00,50.6,48.2,29.73,ESE,113,1.8,6.3,92,0.12,,,0.27,WUHU216HW,2013-04-03 06:40:00,
2013-04-03 00:45:00,50.8,48.4,29.73,East,90,2.2,6.9,92,0.10,,,0.27,WUHU216HW,2013-04-03 06:45:00,
2013-04-03 00:50:00,50.9,49.0,29.74,West,270,2.2,6.9,93,0.09,,,0.27,WUHU216HW,2013-04-03 06:50:00,
2013-04-03 00:55:00,51.3,49.3,29.73,NNE,23,3.4,8.7,93,0.08,,,0.27,WUHU216HW,2013-04-03 06:55:00,
2013-04-03 01:00:00,51.3,49.3,29.73,NE,45,4.5,8.7,93,0.06,,,0.27,WUHU216HW,2013-04-03 07:00:00,
2013-04-03 01:05:00,51.5,49.5,29.73,NW,315,1.8,4.5,93,0.03,,,0.27,WUHU216HW,2013-04-03 07:05:00,
2013-04-03 01:10:00,51.7,49.7,29.72,ENE,68,3.8,4.0,93,0.02,,,0.27,WUHU216HW,2013-04-03 07:10:00,
2013-04-03 01:16:00,51.8,49.9,29.72,SW,225,2.5,5.4,93,0.02,,,0.27,WUHU216HW,2013-04-03 07:16:00,
2013-04-03 01:21:00,52.0,50.1,29.71,NNE,23,2.9,5.4,93,0.01,,,0.27,WUHU216HW,2013-04-03 07:21:00,
2013-04-03 01:26:00,52.2,50.2,29.71,WSW,248,1.1,4.7,93,0.01,,,0.27,WUHU216HW,2013-04-03 07:26:00,
2013-04-03 01:32:00,52.6,50.2,29.69,NNE,23,2.5,4.7,92,0.01,,,0.27,WUHU216HW,2013-04-03 07:32:00,
2013-04-03 01:36:00,52.7,50.8,29.69,NNE,23,1.1,8.3,93,0.00,,,0.27,WUHU216HW,2013-04-03 07:36:00,
2013-04-03 01:42:00,52.9,51.2,29.68,NNE,23,2.7,8.3,94,0.00,,,0.27,WUHU216HW,2013-04-03 07:42:00,
2013-04-03 01:47:00,52.9,51.2,29.67,NE,45,4.5,7.8,94,0.00,,,0.27,WUHU216HW,2013-04-03 07:47:00,
2013-04-03 01:52:00,52.9,51.2,29.66,NNE,23,3.4,7.8,94,0.00,,,0.27,WUHU216HW,2013-04-03 07:52:00,
2013-04-03 01:57:00,53.1,51.4,29.66,NE,45,3.6,5.4,94,0.00,,,0.27,WUHU216HW,2013-04-03 07:57:00,
2013-04-03 02:02:00,53.1,51.4,29.66,NE,45,4.7,5.6,94,0.00,,,0.27,WUHU216HW,2013-04-03 08:02:00,
2013-04-03 02:07:00,53.1,51.4,29.66,NE,45,3.6,8.1,94,0.00,,,0.27,WUHU216HW,2013-04-03 08:07:00,
2013-04-03 02:12:00,52.9,51.2,29.66,NE,45,8.5,8.5,94,0.00,,,0.27,WUHU216HW,2013-04-03 08:12:00,
2013-04-03 02:17:00,52.9,51.2,29.66,NE,45,5.6,8.5,94,0.00,,,0.27,WUHU216HW,2013-04-03 08:17:00,
2013-04-03 02:22:00,52.6,50.6,29.66,ENE,68,4.3,8.5,93,0.00,,,0.27,WUHU216HW,2013-04-03 08:22:00,
2013-04-03 02:27:00,52.4,50.4,29.66,NE,45,2.0,4.9,93,0.00,,,0.27,WUHU216HW,2013-04-03 08:27:00,
2013-04-03 02:32:00,52.2,50.2,29.66,ESE,113,4.7,7.8,93,0.00,,,0.27,WUHU216HW,2013-04-03 08:32:00,
2013-04-03 02:37:00,52.0,50.3,29.66,NE,45,2.9,7.8,94,0.00,,,0.27,WUHU216HW,2013-04-03 08:37:00,
2013-04-03 02:42:00,51.8,50.1,29.67,NNE,23,4.7,6.0,94,0.00,,,0.27,WUHU216HW,2013-04-03 08:42:00,
2013-04-03 02:47:00,51.7,50.0,29.67,NE,45,3.8,6.0,94,0.00,,,0.27,WUHU216HW,2013-04-03 08:47:00,
2013-04-03 02:52:00,51.7,50.0,29.68,NE,45,3.4,4.9,94,0.00,,,0.27,WUHU216HW,2013-04-03 08:52:00,
2013-04-03 02:57:00,51.7,50.0,29.68,NNE,23,2.5,4.3,94,0.00,,,0.27,WUHU216HW,2013-04-03 08:57:00,
2013-04-03 03:02:00,51.7,50.0,29.67,ENE,68,1.8,4.3,94,0.00,,,0.27,WUHU216HW,2013-04-03 09:02:00,
2013-04-03 03:07:00,51.5,49.8,29.67,NNE,23,3.4,4.0,94,0.00,,,0.27,WUHU216HW,2013-04-03 09:07:00,
2013-04-03 03:12:00,51.5,49.8,29.68,ENE,68,2.9,4.0,94,0.00,,,0.27,WUHU216HW,2013-04-03 09:12:00,
2013-04-03 03:17:00,51.5,49.8,29.68,NNE,23,4.3,4.3,94,0.00,,,0.27,WUHU216HW,2013-04-03 09:17:00,
2013-04-03 03:22:00,51.3,49.6,29.68,NE,45,4.7,6.3,94,0.00,,,0.27,WUHU216HW,2013-04-03 09:22:00,
2013-04-03 03:27:00,51.3,49.6,29.69,ENE,68,3.8,6.3,94,0.00,,,0.27,WUHU216HW,2013-04-03 09:27:00,
2013-04-03 03:32:00,51.1,49.4,29.70,North,0,0.7,7.2,94,0.00,,,0.27,WUHU216HW,2013-04-03 09:32:00,
2013-04-03 03:37:00,51.1,49.4,29.71,West,270,3.6,7.2,94,0.00,,,0.27,WUHU216HW,2013-04-03 09:37:00,
2013-04-03 03:42:00,51.3,49.6,29.72,WNW,293,1.6,3.6,94,0.00,,,0.27,WUHU216HW,2013-04-03 09:42:00,
2013-04-03 03:47:00,51.5,49.8,29.73,NNW,338,1.1,2.7,94,0.00,,,0.27,WUHU216HW,2013-04-03 09:47:00,
2013-04-03 03:52:00,51.5,49.8,29.73,WNW,293,2.0,4.5,94,0.00,,,0.27,WUHU216HW,2013-04-03 09:52:00,
2013-04-03 03:57:00,51.5,49.8,29.73,NW,315,1.1,4.5,94,0.00,,,0.27,WUHU216HW,2013-04-03 09:57:00,
2013-04-03 04:02:00,51.5,49.8,29.74,NW,315,0.4,4.0,94,0.00,,,0.27,WUHU216HW,2013-04-03 10:02:00,
2013-04-03 04:07:00,51.5,49.8,29.73,WNW,293,0.9,2.9,94,0.00,,,0.27,WUHU216HW,2013-04-03 10:07:00,
2013-04-03 04:12:00,51.5,49.8,29.73,NNE,23,1.1,2.9,94,0.00,,,0.27,WUHU216HW,2013-04-03 10:12:00,
2013-04-03 04:17:00,51.5,49.8,29.74,WNW,293,0.4,1.8,94,0.00,,,0.27,WUHU216HW,2013-04-03 10:17:00,
2013-04-03 04:22:00,51.7,50.0,29.74,NNW,338,0.9,1.6,94,0.00,,,0.27,WUHU216HW,2013-04-03 10:22:00,
2013-04-03 04:27:00,51.7,50.0,29.74,West,270,1.8,2.9,94,0.00,,,0.27,WUHU216HW,2013-04-03 10:27:00,
2013-04-03 04:32:00,51.7,50.0,29.74,WSW,248,0.2,2.9,94,0.00,,,0.27,WUHU216HW,2013-04-03 10:32:00,
2013-04-03 04:37:00,51.7,50.0,29.74,North,0,0.0,2.5,94,0.00,,,0.27,WUHU216HW,2013-04-03 10:37:00,
2013-04-03 04:43:00,51.7,50.0,29.74,NNW,338,1.6,2.5,94,0.00,,,0.27,WUHU216HW,2013-04-03 10:43:00,
2013-04-03 04:48:00,51.7,50.0,29.74,NNW,338,0.0,1.6,94,0.00,,,0.27,WUHU216HW,2013-04-03 10:48:00,
2013-04-03 04:53:00,51.7,50.0,29.74,NNW,338,0.0,1.1,94,0.00,,,0.27,WUHU216HW,2013-04-03 10:53:00,
2013-04-03 04:58:00,51.7,50.0,29.73,NNW,338,1.1,2.2,94,0.00,,,0.27,WUHU216HW,2013-04-03 10:58:00,
2013-04-03 05:03:00,51.5,49.8,29.74,North,0,1.1,2.2,94,0.00,,,0.27,WUHU216HW,2013-04-03 11:03:00,
2013-04-03 05:08:00,51.3,49.6,29.74,North,0,0.4,1.1,94,0.00,,,0.27,WUHU216HW,2013-04-03 11:08:00,
2013-04-03 05:13:00,51.1,49.4,29.73,NNW,338,0.7,1.1,94,0.00,,,0.27,WUHU216HW,2013-04-03 11:13:00,
2013-04-03 05:18:00,50.9,49.2,29.74,West,270,0.7,1.1,94,0.00,,,0.27,WUHU216HW,2013-04-03 11:18:00,
2013-04-03 05:23:00,50.9,49.2,29.74,North,0,0.9,1.1,94,0.00,,,0.27,WUHU216HW,2013-04-03 11:23:00,
2013-04-03 05:28:00,50.8,49.1,29.74,WNW,293,0.4,1.8,94,0.00,,,0.27,WUHU216HW,2013-04-03 11:28:00,
2013-04-03 05:33:00,50.8,49.1,29.74,WSW,248,1.8,1.8,94,0.00,,,0.27,WUHU216HW,2013-04-03 11:33:00,
2013-04-03 05:38:00,50.8,49.1,29.74,WNW,293,2.0,2.5,94,0.00,,,0.27,WUHU216HW,2013-04-03 11:38:00,
2013-04-03 05:43:00,50.8,49.1,29.74,West,270,1.6,2.5,94,0.00,,,0.27,WUHU216HW,2013-04-03 11:43:00,
2013-04-03 05:48:00,51.3,49.6,29.75,NW,315,3.1,4.0,94,0.00,,,0.27,WUHU216HW,2013-04-03 11:48:00,
2013-04-03 05:53:00,51.3,49.3,29.75,NNW,338,1.8,4.7,93,0.00,,,0.27,WUHU216HW,2013-04-03 11:53:00,
2013-04-03 05:58:00,50.8,48.8,29.75,WNW,293,2.7,4.7,93,0.00,,,0.27,WUHU216HW,2013-04-03 11:58:00,
2013-04-03 06:03:00,50.4,48.7,29.75,NNW,338,2.9,3.4,94,0.00,,,0.27,WUHU216HW,2013-04-03 12:03:00,
2013-04-03 06:08:00,50.2,48.5,29.75,NW,315,3.1,4.5,94,0.00,,,0.27,WUHU216HW,2013-04-03 12:08:00,
2013-04-03 06:13:00,50.0,48.3,29.76,NW,315,2.7,4.5,94,0.00,,,0.27,WUHU216HW,2013-04-03 12:13:00,
2013-04-03 06:18:00,49.9,48.2,29.76,NNW,338,1.1,4.0,94,0.00,,,0.27,WUHU216HW,2013-04-03 12:18:00,
2013-04-03 06:23:00,49.9,48.2,29.77,WSW,248,0.0,3.6,94,0.00,,,0.27,WUHU216HW,2013-04-03 12:23:00,
2013-04-03 06:28:00,49.9,48.2,29.77,WNW,293,1.8,2.9,94,0.00,,,0.27,WUHU216HW,2013-04-03 12:28:00,
2013-04-03 06:33:00,49.9,48.2,29.77,NW,315,1.1,2.9,94,0.00,,,0.27,WUHU216HW,2013-04-03 12:33:00,
2013-04-03 06:38:00,49.9,48.2,29.78,NW,315,3.4,3.4,94,0.00,,,0.27,WUHU216HW,2013-04-03 12:38:00,
2013-04-03 06:43:00,49.9,48.2,29.79,West,270,0.7,3.4,94,0.00,,,0.27,WUHU216HW,2013-04-03 12:43:00,
2013-04-03 06:48:00,49.9,48.2,29.79,NE,45,1.1,2.9,94,0.00,,,0.27,WUHU216HW,2013-04-03 12:48:00,
2013-04-03 06:53:00,50.0,48.3,29.79,WNW,293,0.4,2.2,94,0.00,,,0.27,WUHU216HW,2013-04-03 12:53:00,
2013-04-03 06:58:00,50.0,48.3,29.79,WNW,293,2.5,2.9,94,0.00,,,0.27,WUHU216HW,2013-04-03 12:58:00,
2013-04-03 07:03:00,50.0,48.3,29.79,NNE,23,1.1,2.9,94,0.00,,,0.27,WUHU216HW,2013-04-03 13:03:00,
2013-04-03 07:08:00,50.0,48.3,29.80,North,0,3.4,3.6,94,0.00,,,0.27,WUHU216HW,2013-04-03 13:08:00,
2013-04-03 07:13:00,50.0,48.3,29.80,NNE,23,2.5,4.0,94,0.00,,,0.27,WUHU216HW,2013-04-03 13:13:00,
2013-04-03 07:18:00,50.0,48.3,29.79,ENE,68,0.7,4.7,94,0.00,,,0.27,WUHU216HW,2013-04-03 13:18:00,
2013-04-03 07:23:00,50.0,48.3,29.80,NNE,23,1.3,4.7,94,0.00,,,0.27,WUHU216HW,2013-04-03 13:23:00,
2013-04-03 07:28:00,50.0,48.3,29.80,NNE,23,4.5,4.5,94,0.00,,,0.27,WUHU216HW,2013-04-03 13:28:00,
2013-04-03 07:33:00,50.0,48.3,29.81,SE,135,0.9,6.3,94,0.00,,,0.27,WUHU216HW,2013-04-03 13:33:00,
2013-04-03 07:38:00,50.0,48.3,29.81,West,270,1.8,6.3,94,0.00,,,0.27,WUHU216HW,2013-04-03 13:38:00,
2013-04-03 07:43:00,50.2,48.5,29.81,NNE,23,1.1,4.7,94,0.00,,,0.27,WUHU216HW,2013-04-03 13:43:00,
2013-04-03 07:48:00,50.2,48.5,29.81,West,270,4.3,4.7,94,0.00,,,0.27,WUHU216HW,2013-04-03 13:48:00,
2013-04-03 07:53:00,50.4,48.7,29.81,East,90,4.5,4.5,94,0.00,,,0.27,WUHU216HW,2013-04-03 13:53:00,
2013-04-03 07:58:00,50.4,48.7,29.81,North,0,2.5,5.4,94,0.00,,,0.27,WUHU216HW,2013-04-03 13:58:00,
2013-04-03 08:03:00,50.6,48.9,29.81,NNE,23,0.4,5.4,94,0.00,,,0.27,WUHU216HW,2013-04-03 14:03:00,
2013-04-03 08:08:00,50.6,48.9,29.81,NNE,23,1.1,5.4,94,0.00,,,0.27,WUHU216HW,2013-04-03 14:08:00,
2013-04-03 08:13:00,50.8,49.1,29.81,NNW,338,1.3,4.7,94,0.00,,,0.27,WUHU216HW,2013-04-03 14:13:00,
2013-04-03 08:18:00,50.8,49.1,29.81,NNW,338,3.4,5.4,94,0.00,,,0.27,WUHU216HW,2013-04-03 14:18:00,
2013-04-03 08:23:00,50.9,49.2,29.82,NE,45,1.8,5.4,94,0.00,,,0.27,WUHU216HW,2013-04-03 14:23:00,
2013-04-03 08:28:00,50.9,49.2,29.83,NE,45,3.6,5.8,94,0.00,,,0.27,WUHU216HW,2013-04-03 14:28:00,
2013-04-03 08:33:00,50.9,49.2,29.83,NE,45,4.7,5.8,94,0.00,,,0.27,WUHU216HW,2013-04-03 14:33:00,
2013-04-03 08:38:00,50.9,49.2,29.82,NNE,23,3.4,5.8,94,0.00,,,0.27,WUHU216HW,2013-04-03 14:38:00,
2013-04-03 08:43:00,50.9,49.2,29.81,ESE,113,2.5,4.5,94,0.00,,,0.27,WUHU216HW,2013-04-03 14:43:00,
2013-04-03 08:48:00,50.9,49.2,29.81,ENE,68,5.8,5.8,94,0.00,,,0.27,WUHU216HW,2013-04-03 14:48:00,
2013-04-03 08:53:00,50.9,49.0,29.81,ENE,68,2.7,5.8,93,0.00,,,0.27,WUHU216HW,2013-04-03 14:53:00,
2013-04-03 08:58:00,51.1,49.2,29.84,NW,315,3.4,3.4,93,0.00,,,0.27,WUHU216HW,2013-04-03 14:58:00,
2013-04-03 09:03:00,51.3,49.3,29.86,NNE,23,3.8,3.8,93,0.00,,,0.27,WUHU216HW,2013-04-03 15:03:00,
2013-04-03 09:08:00,51.3,49.3,29.86,NW,315,2.5,3.8,93,0.00,,,0.27,WUHU216HW,2013-04-03 15:08:00,
2013-04-03 09:13:00,51.1,49.2,29.87,WNW,293,0.7,2.5,93,0.00,,,0.27,WUHU216HW,2013-04-03 15:13:00,
2013-04-03 09:18:00,50.8,48.8,29.87,North,0,1.1,4.5,93,0.00,,,0.27,WUHU216HW,2013-04-03 15:18:00,
2013-04-03 09:23:00,50.4,48.4,29.86,West,270,0.9,4.5,93,0.00,,,0.27,WUHU216HW,2013-04-03 15:23:00,
2013-04-03 09:28:00,50.4,48.4,29.86,West,270,2.7,3.4,93,0.00,,,0.27,WUHU216HW,2013-04-03 15:28:00,
2013-04-03 09:33:00,50.2,48.3,29.85,NW,315,1.1,2.7,93,0.00,,,0.27,WUHU216HW,2013-04-03 15:33:00,
2013-04-03 09:38:00,50.0,48.1,29.85,NW,315,1.6,2.0,93,0.00,,,0.27,WUHU216HW,2013-04-03 15:38:00,
2013-04-03 09:43:00,50.0,48.1,29.85,WNW,293,0.4,2.0,93,0.00,,,0.27,WUHU216HW,2013-04-03 15:43:00,
2013-04-03 09:48:00,50.0,48.1,29.84,East,90,2.7,3.4,93,0.01,,,0.28,WUHU216HW,2013-04-03 15:48:00,
2013-04-03 09:53:00,49.5,47.5,29.81,ESE,113,2.5,3.4,93,0.01,,,0.28,WUHU216HW,2013-04-03 15:53:00,
2013-04-03 09:58:00,49.3,47.3,29.81,East,90,1.8,2.5,93,0.02,,,0.28,WUHU216HW,2013-04-03 15:58:00,
2013-04-03 10:03:00,49.1,47.2,29.81,ENE,68,2.5,4.7,93,0.02,,,0.29,WUHU216HW,2013-04-03 16:03:00,
2013-04-03 10:08:00,49.1,47.4,29.82,NE,45,1.8,4.7,94,0.02,,,0.29,WUHU216HW,2013-04-03 16:08:00,
2013-04-03 10:13:00,49.3,47.6,29.83,WSW,248,1.1,4.7,94,0.02,,,0.29,WUHU216HW,2013-04-03 16:13:00,
2013-04-03 10:18:00,49.3,47.3,29.83,NE,45,2.2,3.4,93,0.02,,,0.29,WUHU216HW,2013-04-03 16:18:00,
2013-04-03 10:23:00,49.3,47.3,29.83,NNE,23,1.1,3.4,93,0.02,,,0.29,WUHU216HW,2013-04-03 16:23:00,
2013-04-03 10:28:00,49.5,47.5,29.83,NNW,338,2.0,2.0,93,0.02,,,0.29,WUHU216HW,2013-04-03 16:28:00,
2013-04-03 10:33:00,49.9,47.9,29.82,NE,45,3.6,3.6,93,0.02,,,0.29,WUHU216HW,2013-04-03 16:33:00,
2013-04-03 10:39:00,49.9,47.9,29.82,NE,45,2.9,4.0,93,0.02,,,0.29,WUHU216HW,2013-04-03 16:39:00,
2013-04-03 10:44:00,49.7,47.7,29.82,NNE,23,3.4,5.4,93,0.02,,,0.29,WUHU216HW,2013-04-03 16:44:00,
2013-04-03 10:49:00,49.7,47.7,29.82,West,270,1.8,5.4,93,0.01,,,0.29,WUHU216HW,2013-04-03 16:49:00,
2013-04-03 10:54:00,49.7,47.7,29.83,WSW,248,1.8,4.0,93,0.01,,,0.29,WUHU216HW,2013-04-03 16:54:00,
2013-04-03 10:59:00,49.7,47.7,29.83,West,270,1.6,3.4,93,0.00,,,0.29,WUHU216HW,2013-04-03 16:59:00,
2013-04-03 11:04:00,49.5,47.5,29.82,ENE,68,0.2,4.0,93,0.00,,,0.29,WUHU216HW,2013-04-03 17:04:00,
2013-04-03 11:09:00,49.3,47.6,29.82,NE,45,3.8,5.4,94,0.00,,,0.29,WUHU216HW,2013-04-03 17:09:00,
2013-04-03 11:14:00,49.3,47.6,29.82,NNE,23,4.9,5.4,94,0.00,,,0.29,WUHU216HW,2013-04-03 17:14:00,
2013-04-03 11:19:00,49.3,47.6,29.81,East,90,1.8,4.9,94,0.00,,,0.29,WUHU216HW,2013-04-03 17:19:00,
2013-04-03 11:24:00,49.3,47.6,29.81,NE,45,2.7,3.8,94,0.00,,,0.29,WUHU216HW,2013-04-03 17:24:00,
2013-04-03 11:29:00,49.5,47.5,29.83,NNW,338,0.4,3.4,93,0.00,,,0.29,WUHU216HW,2013-04-03 17:29:00,
2013-04-03 11:34:00,49.5,47.5,29.84,West,270,4.0,4.0,93,0.00,,,0.29,WUHU216HW,2013-04-03 17:34:00,
2013-04-03 11:39:00,49.3,47.6,29.86,WNW,293,2.5,4.0,94,0.00,,,0.29,WUHU216HW,2013-04-03 17:39:00,
2013-04-03 11:44:00,49.5,47.5,29.86,West,270,4.3,4.9,93,0.00,,,0.29,WUHU216HW,2013-04-03 17:44:00,
2013-04-03 11:50:00,49.5,47.5,29.86,WNW,293,1.1,4.9,93,0.00,,,0.29,WUHU216HW,2013-04-03 17:50:00,
2013-04-03 11:55:00,49.3,47.3,29.86,WNW,293,1.6,6.3,93,0.00,,,0.29,WUHU216HW,2013-04-03 17:55:00,
2013-04-03 12:00:00,49.5,47.5,29.84,NNW,338,3.1,6.3,93,0.00,,,0.29,WUHU216HW,2013-04-03 18:00:00,
2013-04-03 12:05:00,49.3,47.6,29.84,NNE,23,1.1,3.6,94,0.00,,,0.29,WUHU216HW,2013-04-03 18:05:00,
2013-04-03 12:10:00,49.3,47.6,29.84,North,0,0.9,3.8,94,0.00,,,0.29,WUHU216HW,2013-04-03 18:10:00,
2013-04-03 12:15:00,49.3,47.6,29.83,NNE,23,0.9,5.6,94,0.00,,,0.29,WUHU216HW,2013-04-03 18:15:00,
2013-04-03 12:20:00,49.3,47.6,29.83,NW,315,1.1,5.6,94,0.00,,,0.29,WUHU216HW,2013-04-03 18:20:00,
2013-04-03 12:25:00,49.1,47.4,29.82,NNE,23,3.4,4.3,94,0.00,,,0.29,WUHU216HW,2013-04-03 18:25:00,
2013-04-03 12:30:00,49.1,47.4,29.80,NE,45,1.3,6.3,94,0.00,,,0.29,WUHU216HW,2013-04-03 18:30:00,
2013-04-03 12:35:00,49.3,47.6,29.79,NE,45,2.5,6.3,94,0.00,,,0.29,WUHU216HW,2013-04-03 18:35:00,
2013-04-03 12:40:00,49.9,48.2,29.81,NW,315,3.4,6.3,94,0.00,,,0.29,WUHU216HW,2013-04-03 18:40:00,
2013-04-03 12:45:00,50.2,48.5,29.81,NW,315,3.1,3.4,94,0.00,,,0.29,WUHU216HW,2013-04-03 18:45:00,
2013-04-03 12:50:00,50.0,48.1,29.81,North,0,6.0,6.0,93,0.00,,,0.29,WUHU216HW,2013-04-03 18:50:00,
2013-04-03 12:55:00,49.9,48.2,29.81,West,270,2.5,6.0,94,0.00,,,0.29,WUHU216HW,2013-04-03 18:55:00,
2013-04-03 13:00:00,49.9,48.2,29.81,NW,315,0.4,2.7,94,0.01,,,0.30,WUHU216HW,2013-04-03 19:00:00,
2013-04-03 13:05:00,49.9,48.2,29.81,North,0,2.5,2.5,94,0.01,,,0.30,WUHU216HW,2013-04-03 19:05:00,
2013-04-03 13:10:00,49.9,48.2,29.82,NNW,338,3.4,3.4,94,0.01,,,0.30,WUHU216HW,2013-04-03 19:10:00,
2013-04-03 13:15:00,50.0,48.3,29.84,NW,315,0.0,3.4,94,0.01,,,0.30,WUHU216HW,2013-04-03 19:15:00,
2013-04-03 13:20:00,50.0,48.1,29.84,NNE,23,1.8,2.9,93,0.01,,,0.30,WUHU216HW,2013-04-03 19:20:00,
2013-04-03 13:25:00,49.9,47.9,29.84,NW,315,1.1,3.8,93,0.01,,,0.30,WUHU216HW,2013-04-03 19:25:00,
2013-04-03 13:30:00,50.0,48.1,29.83,North,0,2.0,3.8,93,0.01,,,0.30,WUHU216HW,2013-04-03 19:30:00,
2013-04-03 13:35:00,49.9,47.9,29.84,NW,315,0.2,2.2,93,0.01,,,0.30,WUHU216HW,2013-04-03 19:35:00,
2013-04-03 13:40:00,50.0,48.1,29.84,West,270,0.9,3.8,93,0.01,,,0.30,WUHU216HW,2013-04-03 19:40:00,
2013-04-03 13:45:00,49.9,48.2,29.83,West,270,2.5,3.8,94,0.01,,,0.30,WUHU216HW,2013-04-03 19:45:00,
2013-04-03 13:50:00,50.0,48.1,29.84,North,0,3.4,3.4,93,0.01,,,0.30,WUHU216HW,2013-04-03 19:50:00,
2013-04-03 13:55:00,50.0,48.1,29.82,West,270,1.8,3.4,93,0.00,,,0.30,WUHU216HW,2013-04-03 19:55:00,
2013-04-03 14:00:00,50.4,48.7,29.82,NW,315,4.0,4.0,94,0.00,,,0.30,WUHU216HW,2013-04-03 20:00:00,
2013-04-03 14:05:00,50.6,48.6,29.80,ESE,113,0.2,4.0,93,0.00,,,0.30,WUHU216HW,2013-04-03 20:05:00,
2013-04-03 14:10:00,50.8,48.8,29.80,NW,315,1.1,3.4,93,0.00,,,0.30,WUHU216HW,2013-04-03 20:10:00,
2013-04-03 14:15:00,50.9,49.0,29.81,NNW,338,2.0,2.2,93,0.00,,,0.30,WUHU216HW,2013-04-03 20:15:00,
2013-04-03 14:20:00,50.6,48.6,29.81,WNW,293,5.1,5.1,93,0.00,,,0.30,WUHU216HW,2013-04-03 20:20:00,
2013-04-03 14:25:00,50.2,48.3,29.84,NNE,23,4.0,5.1,93,0.00,,,0.30,WUHU216HW,2013-04-03 20:25:00,
2013-04-03 14:30:00,49.9,47.9,29.82,North,0,2.2,4.7,93,0.00,,,0.30,WUHU216HW,2013-04-03 20:30:00,
2013-04-03 14:35:00,49.5,47.5,29.81,NNW,338,1.8,4.7,93,0.01,,,0.31,WUHU216HW,2013-04-03 20:35:00,
2013-04-03 14:40:00,49.3,47.3,29.81,NW,315,4.0,4.0,93,0.01,,,0.31,WUHU216HW,2013-04-03 20:40:00,
2013-04-03 14:45:00,49.3,47.3,29.81,WNW,293,0.4,4.0,93,0.01,,,0.31,WUHU216HW,2013-04-03 20:45:00,
2013-04-03 14:50:00,49.1,47.2,29.82,WNW,293,2.5,4.0,93,0.02,,,0.32,WUHU216HW,2013-04-03 20:50:00,
2013-04-03 14:55:00,49.0,47.0,29.82,ENE,68,3.8,4.5,93,0.02,,,0.32,WUHU216HW,2013-04-03 20:55:00,
2013-04-03 15:00:00,48.8,46.9,29.79,NW,315,4.7,4.7,93,0.03,,,0.33,WUHU216HW,2013-04-03 21:00:00,
2013-04-03 15:05:00,49.0,47.4,29.83,NW,315,3.1,4.7,94,0.04,,,0.34,WUHU216HW,2013-04-03 21:05:00,
2013-04-03 15:11:00,48.8,47.2,29.82,North,0,0.0,4.5,94,0.05,,,0.35,WUHU216HW,2013-04-03 21:11:00,
2013-04-03 15:16:00,49.0,47.0,29.82,WNW,293,1.8,2.9,93,0.05,,,0.35,WUHU216HW,2013-04-03 21:16:00,
2013-04-03 15:21:00,48.8,46.9,29.82,North,0,4.7,4.7,93,0.05,,,0.35,WUHU216HW,2013-04-03 21:21:00,
2013-04-03 15:26:00,48.8,47.2,29.82,NNW,338,2.0,4.7,94,0.05,,,0.35,WUHU216HW,2013-04-03 21:26:00,
2013-04-03 15:31:00,49.0,47.4,29.82,NNE,23,1.8,3.4,94,0.05,,,0.35,WUHU216HW,2013-04-03 21:31:00,
2013-04-03 15:36:00,49.1,47.4,29.82,NNW,338,1.3,3.1,94,0.04,,,0.35,WUHU216HW,2013-04-03 21:36:00,
2013-04-03 15:41:00,49.3,47.3,29.82,NNE,23,0.4,3.4,93,0.04,,,0.35,WUHU216HW,2013-04-03 21:41:00,
2013-04-03 15:46:00,49.3,47.6,29.82,NE,45,2.5,4.3,94,0.03,,,0.35,WUHU216HW,2013-04-03 21:46:00,
2013-04-03 15:51:00,49.1,47.2,29.83,NNW,338,3.1,4.3,93,0.03,,,0.35,WUHU216HW,2013-04-03 21:51:00,
2013-04-03 15:56:00,49.0,47.4,29.83,North,0,4.0,4.0,94,0.03,,,0.35,WUHU216HW,2013-04-03 21:56:00,
2013-04-03 16:01:00,49.0,47.4,29.83,NW,315,0.9,4.0,94,0.01,,,0.35,WUHU216HW,2013-04-03 22:01:00,
2013-04-03 16:06:00,49.0,47.0,29.83,NNE,23,1.1,3.1,93,0.00,,,0.35,WUHU216HW,2013-04-03 22:06:00,
2013-04-03 16:11:00,49.0,47.0,29.83,North,0,0.2,4.0,93,0.00,,,0.35,WUHU216HW,2013-04-03 22:11:00,
2013-04-03 16:15:00,49.0,47.4,29.83,NW,315,0.4,5.8,94,0.00,,,0.35,WUHU216HW,2013-04-03 22:15:00,
2013-04-03 16:20:00,49.0,47.4,29.83,NW,315,2.5,5.8,94,0.00,,,0.35,WUHU216HW,2013-04-03 22:20:00,
2013-04-03 16:26:00,49.1,47.2,29.83,WSW,248,1.1,3.1,93,0.00,,,0.35,WUHU216HW,2013-04-03 22:26:00,
2013-04-03 16:30:00,49.1,47.4,29.83,NW,315,0.4,3.1,94,0.00,,,0.35,WUHU216HW,2013-04-03 22:30:00,
2013-04-03 16:36:00,49.3,47.3,29.84,WSW,248,1.1,2.9,93,0.00,,,0.35,WUHU216HW,2013-04-03 22:36:00,
2013-04-03 16:41:00,49.1,47.2,29.84,North,0,1.8,4.0,93,0.00,,,0.35,WUHU216HW,2013-04-03 22:41:00,
2013-04-03 16:45:00,49.0,47.0,29.84,West,270,1.1,4.0,93,0.00,,,0.35,WUHU216HW,2013-04-03 22:45:00,
2013-04-03 16:50:00,49.0,47.0,29.84,WNW,293,1.8,3.4,93,0.00,,,0.35,WUHU216HW,2013-04-03 22:50:00,
2013-04-03 16:55:00,49.0,47.0,29.84,NNE,23,0.4,3.4,93,0.00,,,0.35,WUHU216HW,2013-04-03 22:55:00,
2013-04-03 17:00:00,48.8,46.9,29.85,NW,315,2.5,3.4,93,0.00,,,0.35,WUHU216HW,2013-04-03 23:00:00,
2013-04-03 17:05:00,48.6,46.7,29.85,NW,315,0.2,3.1,93,0.00,,,0.35,WUHU216HW,2013-04-03 23:05:00,
2013-04-03 17:10:00,48.8,46.9,29.85,WNW,293,1.8,3.1,93,0.00,,,0.35,WUHU216HW,2013-04-03 23:10:00,
2013-04-03 17:16:00,48.6,46.7,29.85,NW,315,2.5,2.5,93,0.00,,,0.35,WUHU216HW,2013-04-03 23:16:00,
2013-04-03 17:21:00,48.6,46.7,29.85,West,270,0.0,2.5,93,0.00,,,0.35,WUHU216HW,2013-04-03 23:21:00,
2013-04-03 17:26:00,48.6,47.0,29.85,NNE,23,2.2,2.5,94,0.00,,,0.35,WUHU216HW,2013-04-03 23:26:00,
2013-04-03 17:31:00,48.8,46.9,29.85,NW,315,2.5,2.5,93,0.00,,,0.35,WUHU216HW,2013-04-03 23:31:00,
2013-04-03 17:36:00,48.8,46.9,29.85,WNW,293,2.5,2.5,93,0.00,,,0.35,WUHU216HW,2013-04-03 23:36:00,
2013-04-03 17:41:00,48.8,46.9,29.85,NE,45,0.4,2.5,93,0.00,,,0.35,WUHU216HW,2013-04-03 23:41:00,
2013-04-03 17:47:00,48.8,46.9,29.85,NW,315,1.8,1.8,93,0.00,,,0.35,WUHU216HW,2013-04-03 23:47:00,
2013-04-03 17:52:00,48.8,46.9,29.85,NW,315,2.0,2.5,93,0.00,,,0.35,WUHU216HW,2013-04-03 23:52:00,
2013-04-03 17:57:00,48.8,47.2,29.85,NNE,23,4.0,4.0,94,0.00,,,0.35,WUHU216HW,2013-04-03 23:57:00,
2013-04-03 18:02:00,48.6,47.0,29.85,NW,315,1.1,4.0,94,0.00,,,0.35,WUHU216HW,2013-04-04 00:02:00,
2013-04-03 18:07:00,48.6,46.7,29.85,North,0,1.3,3.1,93,0.00,,,0.35,WUHU216HW,2013-04-04 00:07:00,
2013-04-03 18:11:00,48.6,47.0,29.85,NW,315,0.4,2.9,94,0.00,,,0.35,WUHU216HW,2013-04-04 00:11:00,
2013-04-03 18:16:00,48.6,47.0,29.85,ENE,68,1.1,1.8,94,0.00,,,0.35,WUHU216HW,2013-04-04 00:16:00,
2013-04-03 18:21:00,48.6,47.0,29.85,WSW,248,2.2,2.5,94,0.00,,,0.35,WUHU216HW,2013-04-04 00:21:00,
2013-04-03 18:27:00,48.6,47.0,29.85,NW,315,0.4,2.9,94,0.00,,,0.35,WUHU216HW,2013-04-04 00:27:00,
2013-04-03 18:32:00,48.6,47.0,29.85,NNW,338,3.8,3.8,94,0.00,,,0.35,WUHU216HW,2013-04-04 00:32:00,
2013-04-03 18:37:00,48.6,47.0,29.86,NNW,338,3.1,3.8,94,0.01,,,0.35,WUHU216HW,2013-04-04 00:37:00,
2013-04-03 18:42:00,48.4,46.8,29.86,NW,315,2.2,3.8,94,0.01,,,0.36,WUHU216HW,2013-04-04 00:42:00,
2013-04-03 18:47:00,48.4,46.8,29.86,WNW,293,1.1,2.2,94,0.01,,,0.36,WUHU216HW,2013-04-04 00:47:00,
2013-04-03 18:52:00,48.2,46.6,29.86,North,0,3.4,3.4,94,0.01,,,0.36,WUHU216HW,2013-04-04 00:52:00,
2013-04-03 18:57:00,48.2,46.6,29.86,NW,315,1.8,3.4,94,0.01,,,0.36,WUHU216HW,2013-04-04 00:57:00,
2013-04-03 19:02:00,48.2,46.6,29.87,NNW,338,1.1,2.9,94,0.01,,,0.36,WUHU216HW,2013-04-04 01:02:00,
2013-04-03 19:07:00,48.1,46.4,29.87,NW,315,0.7,3.6,94,0.01,,,0.36,WUHU216HW,2013-04-04 01:07:00,
2013-04-03 19:12:00,48.1,46.4,29.87,West,270,0.4,3.6,94,0.01,,,0.36,WUHU216HW,2013-04-04 01:12:00,
2013-04-03 19:17:00,48.1,46.4,29.87,NNW,338,0.4,3.4,94,0.01,,,0.36,WUHU216HW,2013-04-04 01:17:00,
2013-04-03 19:22:00,48.1,46.4,29.87,NNW,338,0.9,3.4,94,0.01,,,0.36,WUHU216HW,2013-04-04 01:22:00,
2013-04-03 19:27:00,47.9,46.3,29.88,NW,315,0.0,2.2,94,0.01,,,0.36,WUHU216HW,2013-04-04 01:27:00,
2013-04-03 19:32:00,47.9,46.3,29.88,West,270,0.9,2.2,94,0.00,,,0.36,WUHU216HW,2013-04-04 01:32:00,
2013-04-03 19:37:00,47.9,46.3,29.88,North,0,0.0,2.2,94,0.00,,,0.36,WUHU216HW,2013-04-04 01:37:00,
2013-04-03 19:42:00,47.9,46.3,29.88,WNW,293,0.9,2.0,94,0.00,,,0.36,WUHU216HW,2013-04-04 01:42:00,
2013-04-03 19:47:00,47.9,46.3,29.88,NNW,338,0.7,1.8,94,0.00,,,0.36,WUHU216HW,2013-04-04 01:47:00,
2013-04-03 19:52:00,47.7,46.1,29.88,WNW,293,4.0,4.3,94,0.00,,,0.36,WUHU216HW,2013-04-04 01:52:00,
2013-04-03 19:57:00,47.5,45.9,29.89,North,0,0.7,4.7,94,0.00,,,0.36,WUHU216HW,2013-04-04 01:57:00,
2013-04-03 20:02:00,47.5,45.9,29.89,WSW,248,1.3,4.7,94,0.00,,,0.36,WUHU216HW,2013-04-04 02:02:00,
2013-04-03 20:07:00,47.5,45.9,29.89,NW,315,0.2,2.2,94,0.00,,,0.36,WUHU216HW,2013-04-04 02:07:00,
2013-04-03 20:12:00,47.5,45.9,29.89,NW,315,1.3,2.2,94,0.00,,,0.36,WUHU216HW,2013-04-04 02:12:00,
2013-04-03 20:17:00,47.5,45.9,29.90,WNW,293,2.0,2.2,94,0.00,,,0.36,WUHU216HW,2013-04-04 02:17:00,
2013-04-03 20:22:00,47.2,45.5,29.90,North,0,3.4,3.4,94,0.00,,,0.36,WUHU216HW,2013-04-04 02:22:00,
2013-04-03 20:27:00,47.2,45.5,29.90,SE,135,1.6,3.4,94,0.00,,,0.36,WUHU216HW,2013-04-04 02:27:00,
2013-04-03 20:32:00,47.2,45.5,29.91,NW,315,0.4,2.5,94,0.00,,,0.36,WUHU216HW,2013-04-04 02:32:00,
2013-04-03 20:37:00,47.2,45.5,29.91,NW,315,3.4,3.4,94,0.00,,,0.36,WUHU216HW,2013-04-04 02:37:00,
2013-04-03 20:42:00,47.2,45.5,29.91,North,0,1.6,4.0,94,0.00,,,0.36,WUHU216HW,2013-04-04 02:42:00,
2013-04-03 20:47:00,47.2,45.5,29.91,NW,315,1.1,4.0,94,0.00,,,0.36,WUHU216HW,2013-04-04 02:47:00,
2013-04-03 20:52:00,47.0,45.4,29.91,WNW,293,1.8,2.0,94,0.00,,,0.36,WUHU216HW,2013-04-04 02:52:00,
2013-04-03 20:57:00,47.0,45.4,29.91,West,270,1.3,2.2,94,0.00,,,0.36,WUHU216HW,2013-04-04 02:57:00,
2013-04-03 21:02:00,47.0,45.4,29.91,West,270,2.7,2.7,94,0.00,,,0.36,WUHU216HW,2013-04-04 03:02:00,
2013-04-03 21:07:00,47.0,45.4,29.92,West,270,1.8,2.7,94,0.00,,,0.36,WUHU216HW,2013-04-04 03:07:00,
2013-04-03 21:12:00,47.0,45.4,29.92,WNW,293,4.0,4.0,94,0.00,,,0.36,WUHU216HW,2013-04-04 03:12:00,
2013-04-03 21:17:00,47.0,45.4,29.92,West,270,0.7,4.0,94,0.00,,,0.36,WUHU216HW,2013-04-04 03:17:00,
2013-04-03 21:22:00,46.8,45.2,29.92,NW,315,1.3,4.0,94,0.00,,,0.36,WUHU216HW,2013-04-04 03:22:00,
2013-04-03 21:27:00,46.8,45.2,29.92,West,270,2.0,4.0,94,0.00,,,0.36,WUHU216HW,2013-04-04 03:27:00,
2013-04-03 21:32:00,46.8,45.2,29.92,NW,315,1.1,4.0,94,0.00,,,0.36,WUHU216HW,2013-04-04 03:32:00,
2013-04-03 21:37:00,46.8,45.2,29.92,NW,315,2.0,2.5,94,0.00,,,0.36,WUHU216HW,2013-04-04 03:37:00,
2013-04-03 21:42:00,46.8,45.2,29.92,North,0,0.4,2.5,94,0.00,,,0.36,WUHU216HW,2013-04-04 03:42:00,
2013-04-03 21:47:00,46.8,45.2,29.92,NE,45,0.9,2.5,94,0.00,,,0.36,WUHU216HW,2013-04-04 03:47:00,
2013-04-03 21:52:00,46.8,45.2,29.92,ESE,113,1.3,2.5,94,0.00,,,0.36,WUHU216HW,2013-04-04 03:52:00,
2013-04-03 21:57:00,46.8,45.2,29.92,West,270,1.1,1.3,94,0.00,,,0.36,WUHU216HW,2013-04-04 03:57:00,
2013-04-03 22:00:00,46.8,45.2,29.93,NNW,338,0.9,1.8,94,0.00,,,0.36,WUHU216HW,2013-04-04 04:00:00,
2013-04-03 22:05:00,46.8,45.2,29.92,WNW,293,0.0,1.8,94,0.00,,,0.36,WUHU216HW,2013-04-04 04:05:00,
2013-04-03 22:10:00,46.8,45.2,29.93,WSW,248,3.1,3.1,94,0.00,,,0.36,WUHU216HW,2013-04-04 04:10:00,
2013-04-03 22:15:00,46.8,45.2,29.93,WNW,293,0.4,3.1,94,0.00,,,0.36,WUHU216HW,2013-04-04 04:15:00,
2013-04-03 22:20:00,46.8,45.2,29.93,WNW,293,1.1,2.0,94,0.00,,,0.36,WUHU216HW,2013-04-04 04:20:00,
2013-04-03 22:25:00,46.8,45.2,29.93,ENE,68,1.1,1.8,94,0.00,,,0.36,WUHU216HW,2013-04-04 04:25:00,
2013-04-03 22:30:00,46.6,45.0,29.93,North,0,0.2,2.2,94,0.00,,,0.36,WUHU216HW,2013-04-04 04:30:00,
2013-04-03 22:35:00,46.8,45.2,29.93,SW,225,0.9,2.2,94,0.00,,,0.36,WUHU216HW,2013-04-04 04:35:00,
2013-04-03 22:40:00,46.8,45.2,29.93,WNW,293,0.4,2.5,94,0.00,,,0.36,WUHU216HW,2013-04-04 04:40:00,
2013-04-03 22:45:00,46.8,45.2,29.93,NW,315,0.0,2.5,94,0.00,,,0.36,WUHU216HW,2013-04-04 04:45:00,
2013-04-03 22:50:00,46.8,45.2,29.92,West,270,1.8,1.8,94,0.00,,,0.36,WUHU216HW,2013-04-04 04:50:00,
2013-04-03 22:55:00,46.8,45.2,29.92,West,270,0.4,1.8,94,0.00,,,0.36,WUHU216HW,2013-04-04 04:55:00,
2013-04-03 23:00:00,46.8,45.2,29.93,NW,315,1.1,1.1,94,0.00,,,0.00,WUHU216HW,2013-04-04 05:00:00,
2013-04-03 23:05:00,46.8,45.2,29.93,NNW,338,2.7,2.7,94,0.00,,,0.00,WUHU216HW,2013-04-04 05:05:00,
2013-04-03 23:10:00,46.8,45.2,29.93,NW,315,1.3,2.7,94,0.00,,,0.00,WUHU216HW,2013-04-04 05:10:00,
2013-04-03 23:15:00,46.8,45.2,29.93,WNW,293,1.8,1.8,94,0.00,,,0.00,WUHU216HW,2013-04-04 05:15:00,
2013-04-03 23:20:00,46.8,45.2,29.93,WNW,293,1.3,2.0,94,0.00,,,0.00,WUHU216HW,2013-04-04 05:20:00,
2013-04-03 23:25:00,46.8,45.2,29.93,WNW,293,1.8,2.0,94,0.00,,,0.00,WUHU216HW,2013-04-04 05:25:00,
2013-04-03 23:30:00,46.6,45.0,29.92,NW,315,1.8,2.0,94,0.00,,,0.00,WUHU216HW,2013-04-04 05:30:00,
2013-04-03 23:35:00,46.6,45.0,29.92,NE,45,1.1,3.4,94,0.00,,,0.00,WUHU216HW,2013-04-04 05:35:00,
2013-04-03 23:40:00,46.6,45.0,29.92,West,270,1.1,3.4,94,0.00,,,0.00,WUHU216HW,2013-04-04 05:40:00,
2013-04-03 23:45:00,46.6,45.0,29.93,WNW,293,2.7,3.4,94,0.00,,,0.00,WUHU216HW,2013-04-04 05:45:00,
2013-04-03 23:50:00,46.6,45.0,29.92,WNW,293,2.7,2.9,94,0.00,,,0.00,WUHU216HW,2013-04-04 05:50:00,
2013-04-03 23:55:00,46.6,45.0,29.92,WNW,293,0.9,2.9,94,0.00,,,0.00,WUHU216HW,2013-04-04 05:55:00,